Location: Kitchener-Waterloo
(43.4500°N, 80.5000°W)
Time: 21:49:34
(UTC-04:00)

Amateur Radio Satellites - All Passes

Search period start: 25 October 2014 21:19
Search period end: 26 October 2014 21:19
Location: Kitchener-Waterloo, 43.4500°N, 80.5000°W

Satellite Date Start Highest point End Downlink Frequencies (MHz)
Time Altitude Azimuth
SO-50 25 Oct 21:25:01 21:29:38 42° 49° (NE) 21:34:16 436.795 FM
STRAND 1 25 Oct 21:42:41 21:46:27 21° 298° (WNW) 21:50:12 ?
HO-68 25 Oct 21:45:17 21:52:24 69° 256° (WSW) 21:59:35 435.675 MHz FM
ZACube-1 25 Oct 22:02:07 22:06:03 29° 68° (ENE) 22:09:56 437.345 MHz
UKube-1 25 Oct 22:04:54 22:09:15 78° 75° (ENE) 22:13:38 145.840 MHz, 145.915 MHz
UOSAT-12 25 Oct 22:43:39 22:47:44 28° 43° (NE) 22:51:46 437.025 FM, 437.400 FM
KITSAT 1 25 Oct 22:43:58 22:51:34 47° 248° (WSW) 22:59:09 435.175 FM
FUNcube-1 25 Oct 22:45:50 22:50:25 80° 76° (ENE) 22:54:56 145.950 - 145.970 MHz USB
Oscar 11 25 Oct 22:45:54 22:50:01 43° 261° (W) 22:54:10 145.825 FM, Beacon 2401.500 USB
SO-50 25 Oct 23:05:56 23:10:02 28° 246° (WSW) 23:14:09 436.795 FM
RS-15 25 Oct 23:13:50 23:24:51 87° 122° (ESE) 23:35:51 29.354 - 29.394 USB, Beacon 29.352 USB
ZACube-1 25 Oct 23:38:21 23:42:22 30° 264° (W) 23:46:21 437.345 MHz
HO-68 25 Oct 23:39:23 23:41:22 11° 275° (W) 23:43:21 435.675 MHz FM
UKube-1 25 Oct 23:45:48 23:45:58 10° 271° (W) 23:46:08 145.840 MHz, 145.915 MHz
MaSat-1 26 Oct 00:13:57 00:18:03 76° 115° (ESE) 00:21:45 437.345 MHz
UOSAT-12 26 Oct 00:23:34 00:28:04 44° 242° (WSW) 00:32:28 437.025 FM, 437.400 FM
FUNcube-1 26 Oct 00:26:20 00:27:18 11° 272° (W) 00:28:17 145.950 - 145.970 MHz USB
RS-15 26 Oct 01:28:54 01:38:38 35° 329° (NNW) 01:48:31 29.354 - 29.394 USB, Beacon 29.352 USB
Oscar 16 26 Oct 01:32:27 01:33:55 11° 88° (E) 01:35:22 437.025 USB, Beacon 2401.1428
Oscar 10/S400 26 Oct 01:40:49 02:37:04 19° 241° (WSW) 04:46:31 145.825 - 145.975 CW/USB, Beacon 145.810 USB
MaSat-1 26 Oct 01:52:37 01:53:58 12° 311° (NW) 01:55:18 437.345 MHz
JAS-1B 26 Oct 02:11:17 02:17:16 31° 97° (E) 02:24:09 435.800 - 435.900 CW/SSB
Oscar 19 26 Oct 02:23:07 02:27:46 34° 97° (E) 02:32:24 437.125 CW, 437.150 USB
AO-27 26 Oct 02:44:17 02:48:24 23° 93° (E) 02:52:28 436.795 MHz FM
AO-Echo 26 Oct 02:54:17 02:59:13 38° 97° (E) 03:04:07 ?
Oscar 16 26 Oct 03:08:48 03:13:57 88° 285° (WNW) 03:19:05 437.025 USB, Beacon 2401.1428
Sapphire 26 Oct 03:14:21 03:17:59 19° 105° (ESE) 03:21:38 437.095 MHz 1200 baud AX-25 AFSK
Uribyol 2 26 Oct 03:30:36 03:35:48 63° 102° (ESE) 03:40:55 436.500 FM
PCSat 26 Oct 03:35:27 03:40:08 31° 110° (ESE) 03:44:50 145.825 MHz
ITAMSAT 1 26 Oct 03:36:56 03:42:10 68° 102° (ESE) 03:47:21 435.822 SSB
RS-15 26 Oct 03:47:01 03:55:27 24° 4° (N) 04:04:03 29.354 - 29.394 USB, Beacon 29.352 USB
OPAL 26 Oct 03:57:54 03:59:56 12° 55° (NE) 04:01:58 ?
JAS-1B 26 Oct 04:01:37 04:08:01 53° 290° (WNW) 04:15:37 435.800 - 435.900 CW/SSB
Oscar 19 26 Oct 04:02:35 04:07:02 31° 294° (WNW) 04:11:28 437.125 CW, 437.150 USB
Gurwin Techsat 1B 26 Oct 04:04:06 04:09:25 65° 102° (ESE) 04:14:41 435.225 FM
TMSAT-1 26 Oct 04:14:31 04:19:48 61° 101° (E) 04:25:01 436.925 FM
AO-7 26 Oct 04:19:33 04:25:23 21° 91° (E) 04:31:12 29.400 - 29.500 MHz
AO-27 26 Oct 04:23:07 04:28:08 47° 290° (WNW) 04:33:06 436.795 MHz FM
AO-Echo 26 Oct 04:33:14 04:37:50 31° 294° (WNW) 04:42:26 ?
Uosat F 26 Oct 04:41:38 04:44:38 16° 91° (E) 04:47:37 435.120 FM
Oscar 16 26 Oct 04:50:20 04:52:32 13° 303° (WNW) 04:54:44 437.025 USB, Beacon 2401.1428
Sapphire 26 Oct 04:55:28 05:00:50 66° 303° (WNW) 05:06:16 437.095 MHz 1200 baud AX-25 AFSK
Uribyol 2 26 Oct 05:11:13 05:14:46 19° 299° (WNW) 05:18:17 436.500 FM
ITAMSAT 1 26 Oct 05:17:43 05:21:06 18° 300° (WNW) 05:24:29 435.822 SSB
PCSat 26 Oct 05:18:16 05:23:23 42° 308° (NW) 05:28:33 145.825 MHz
OPAL 26 Oct 05:32:53 05:38:02 82° 72° (ENE) 05:43:08 ?
STRAND 1 26 Oct 05:44:06 05:46:20 13° 57° (ENE) 05:48:34 ?
Gurwin Techsat 1B 26 Oct 05:45:16 05:48:51 19° 299° (WNW) 05:52:26 435.225 FM
TMSAT-1 26 Oct 05:55:29 05:59:14 20° 299° (WNW) 06:02:59 436.925 FM
JAS-2 26 Oct 06:00:01 06:07:00 34° 93° (E) 06:13:54 435.800 - 435.900 CW/SSB, 435.910 FM
RS-15 26 Oct 06:01:27 06:11:50 42° 37° (NE) 06:22:32 29.354 - 29.394 USB, Beacon 29.352 USB
AO-7 26 Oct 06:10:45 06:19:07 86° 290° (WNW) 06:27:29 29.400 - 29.500 MHz
Uosat F 26 Oct 06:18:51 06:23:53 65° 288° (WNW) 06:28:51 435.120 FM
Hamsat 26 Oct 06:36:15 06:39:58 29° 96° (E) 06:43:40 145.90 MHz
Sapphire 26 Oct 06:42:23 06:45:21 15° 325° (NW) 06:48:18 437.095 MHz 1200 baud AX-25 AFSK
PCSat 26 Oct 07:07:22 07:08:20 10° 331° (NNW) 07:09:19 145.825 MHz
OPAL 26 Oct 07:15:20 07:17:29 13° 269° (W) 07:19:39 ?
STRAND 1 26 Oct 07:19:36 07:24:44 88° 75° (ENE) 07:29:55 ?
Saudisat 1A 26 Oct 07:25:09 07:29:02 32° 116° (ESE) 07:32:57 436.775 MHz
JAS-2 26 Oct 07:44:40 07:52:13 56° 291° (WNW) 07:59:47 435.800 - 435.900 CW/SSB, 435.910 FM
AO-7 26 Oct 08:04:52 08:10:49 23° 310° (NW) 08:16:47 29.400 - 29.500 MHz
Hamsat 26 Oct 08:12:22 08:15:48 25° 292° (WNW) 08:19:14 145.90 MHz
RS-15 26 Oct 08:13:57 08:25:02 71° 242° (WSW) 08:36:35 29.354 - 29.394 USB, Beacon 29.352 USB
SO-67 26 Oct 08:25:11 08:28:38 69° 101° (E) 08:32:03 435.3500 MHz FM
STRAND 1 26 Oct 09:02:59 09:04:37 11° 272° (W) 09:06:15 ?
Saudisat 1A 26 Oct 09:04:37 09:08:34 32° 314° (NW) 09:12:33 436.775 MHz
HO-68 26 Oct 09:12:43 09:18:04 22° 91° (E) 09:23:23 435.675 MHz FM
JAS-2 26 Oct 09:32:19 09:35:40 13° 310° (NW) 09:39:02 435.800 - 435.900 CW/SSB, 435.910 FM
UKube-1 26 Oct 09:54:02 09:55:43 12° 90° (E) 09:57:24 145.840 MHz, 145.915 MHz
MaSat-1 26 Oct 09:59:06 10:01:22 27° 250° (WSW) 10:03:29 437.345 MHz
RS-15 26 Oct 10:29:18 10:35:20 16° 263° (W) 10:41:31 29.354 - 29.394 USB, Beacon 29.352 USB
Oscar 11 26 Oct 10:32:24 10:36:12 30° 96° (E) 10:39:59 145.825 FM, Beacon 2401.500 USB
FUNcube-1 26 Oct 10:35:41 10:37:45 13° 90° (E) 10:39:48 145.950 - 145.970 MHz USB
HO-68 26 Oct 10:59:14 11:06:25 74° 290° (WNW) 11:13:33 435.675 MHz FM
KITSAT 1 26 Oct 11:19:52 11:25:55 24° 104° (ESE) 11:31:57 435.175 FM
ZACube-1 26 Oct 11:25:59 11:30:07 48° 99° (E) 11:34:08 437.345 MHz
UKube-1 26 Oct 11:28:00 11:32:21 66° 287° (WNW) 11:36:40 145.840 MHz, 145.915 MHz
Sapphire 26 Oct 11:59:33 12:03:53 24° 44° (NE) 12:08:12 437.095 MHz 1200 baud AX-25 AFSK
Oscar 10/S400 26 Oct 12:01:25 12:16:35 19° 150° (SSE) 12:28:32 145.825 - 145.975 CW/USB, Beacon 145.810 USB
Oscar 11 26 Oct 12:08:42 12:12:17 26° 293° (WNW) 12:15:50 145.825 FM, Beacon 2401.500 USB
FUNcube-1 26 Oct 12:10:21 12:14:31 54° 287° (WNW) 12:18:35 145.950 - 145.970 MHz USB
PCSat 26 Oct 12:21:37 12:26:34 34° 49° (NE) 12:31:29 145.825 MHz
HO-68 26 Oct 12:48:51 12:52:56 16° 310° (NW) 12:57:01 435.675 MHz FM
Oscar 16 26 Oct 12:49:26 12:53:11 21° 62° (ENE) 12:56:56 437.025 USB, Beacon 2401.1428
JAS-1B 26 Oct 13:00:25 13:04:57 24° 62° (ENE) 13:09:24 435.800 - 435.900 CW/SSB
ZACube-1 26 Oct 13:03:27 13:06:07 17° 297° (WNW) 13:08:46 437.345 MHz
ISS 26 Oct 13:08:53 13:12:12 70° 145° (SE) 13:15:31 145.800 FM
KITSAT 1 26 Oct 13:12:21 13:20:26 79° 303° (WNW) 13:28:35 435.175 FM
Uribyol 2 26 Oct 13:13:01 13:16:01 16° 59° (ENE) 13:19:01 436.500 FM
ITAMSAT 1 26 Oct 13:19:15 13:22:27 17° 59° (ENE) 13:25:39 435.822 SSB
SO-50 26 Oct 13:21:03 13:25:32 77° 122° (ESE) 13:30:10 436.795 FM
Oscar 19 26 Oct 13:40:59 13:46:01 56° 71° (ENE) 13:51:03 437.125 CW, 437.150 USB
Sapphire 26 Oct 13:42:23 13:47:47 65° 243° (WSW) 13:53:08 437.095 MHz 1200 baud AX-25 AFSK
Gurwin Techsat 1B 26 Oct 13:49:07 13:52:23 17° 59° (ENE) 13:55:39 435.225 FM
TMSAT-1 26 Oct 13:59:31 14:02:32 16° 59° (ENE) 14:05:32 436.925 FM
AO-27 26 Oct 14:03:20 14:08:09 39° 68° (ENE) 14:13:00 436.795 MHz FM
PCSat 26 Oct 14:05:00 14:10:02 39° 248° (WSW) 14:15:01 145.825 MHz
AO-Echo 26 Oct 14:08:18 14:13:03 52° 71° (ENE) 14:18:00 ?
Oscar 16 26 Oct 14:27:05 14:32:08 55° 260° (W) 14:37:12 437.025 USB, Beacon 2401.1428
UOSAT-12 26 Oct 14:35:27 14:39:49 42° 117° (ESE) 14:44:16 437.025 FM, 437.400 FM
ISS 26 Oct 14:46:13 14:49:08 27° 343° (NNW) 14:52:03 145.800 FM
Uribyol 2 26 Oct 14:49:36 14:54:50 79° 256° (WSW) 15:00:06 436.500 FM
JAS-1B 26 Oct 14:49:43 14:55:23 48° 260° (W) 15:00:52 435.800 - 435.900 CW/SSB
ITAMSAT 1 26 Oct 14:56:08 15:01:20 73° 257° (WSW) 15:06:35 435.822 SSB
SO-50 26 Oct 15:03:26 15:06:39 19° 323° (NW) 15:09:57 436.795 FM
KITSAT 1 26 Oct 15:10:47 15:17:11 25° 327° (NNW) 15:23:38 435.175 FM
AO-7 26 Oct 15:19:40 15:26:49 34° 57° (ENE) 15:33:59 29.400 - 29.500 MHz
Oscar 19 26 Oct 15:22:09 15:25:42 19° 268° (W) 15:29:16 437.125 CW, 437.150 USB
Gurwin Techsat 1B 26 Oct 15:26:26 15:31:44 74° 257° (WSW) 15:37:05 435.225 FM
TMSAT-1 26 Oct 15:36:28 15:41:46 80° 257° (WSW) 15:47:07 436.925 FM
AO-27 26 Oct 15:43:20 15:47:45 28° 265° (W) 15:52:12 436.795 MHz FM
AO-Echo 26 Oct 15:48:39 15:52:10 19° 269° (W) 15:55:46 ?
Saudisat 1A 26 Oct 15:50:18 15:54:27 38° 48° (NE) 15:58:35 436.775 MHz
Uosat F 26 Oct 15:55:39 15:59:45 26° 64° (ENE) 16:03:52 435.120 FM
UOSAT-12 26 Oct 16:16:02 16:20:06 29° 316° (NW) 16:24:14 437.025 FM, 437.400 FM
JAS-2 26 Oct 16:16:02 16:19:42 16° 52° (NE) 16:23:34 435.800 - 435.900 CW/SSB, 435.910 FM
ISS 26 Oct 16:24:02 16:26:35 20° 4° (N) 16:29:08 145.800 FM
AO-7 26 Oct 17:11:01 17:19:10 61° 256° (WSW) 17:27:22 29.400 - 29.500 MHz
KITSAT 1 26 Oct 17:12:16 17:16:07 14° 357° (N) 17:19:57 435.175 FM
Saudisat 1A 26 Oct 17:30:11 17:33:52 26° 246° (WSW) 17:37:32 436.775 MHz
Hamsat 26 Oct 17:30:55 17:34:22 25° 68° (ENE) 17:37:48 145.90 MHz
Uosat F 26 Oct 17:33:35 17:38:19 41° 262° (W) 17:43:05 435.120 FM
OPAL 26 Oct 17:42:48 17:46:11 18° 94° (E) 17:49:33 ?
JAS-2 26 Oct 17:57:27 18:03:29 80° 74° (ENE) 18:10:24 435.800 - 435.900 CW/SSB, 435.910 FM
ISS 26 Oct 18:00:44 18:03:55 39° 24° (NNE) 18:07:04 145.800 FM
SO-67 26 Oct 18:59:06 19:01:59 26° 70° (ENE) 19:04:53 435.3500 MHz FM
Hamsat 26 Oct 19:06:33 19:10:13 29° 264° (W) 19:13:53 145.90 MHz
KITSAT 1 26 Oct 19:09:23 19:15:17 21° 28° (NNE) 19:21:09 435.175 FM
AO-7 26 Oct 19:12:44 19:13:37 10° 276° (W) 19:14:30 29.400 - 29.500 MHz
OPAL 26 Oct 19:20:33 19:25:24 55° 291° (WNW) 19:30:13 ?
STRAND 1 26 Oct 19:29:35 19:33:57 27° 95° (E) 19:38:17 ?
ISS 26 Oct 19:37:30 19:40:34 34° 221° (SW) 19:43:37 145.800 FM
HO-68 26 Oct 19:43:39 19:48:39 21° 54° (NE) 19:53:41 435.675 MHz FM
JAS-2 26 Oct 19:45:43 19:49:33 17° 275° (W) 19:53:40 435.800 - 435.900 CW/SSB, 435.910 FM
SO-50 26 Oct 20:11:50 20:15:09 18° 37° (NE) 20:18:30 436.795 FM
SO-67 26 Oct 20:32:31 20:34:58 18° 267° (W) 20:37:26 435.3500 MHz FM
RS-15 26 Oct 20:33:21 20:38:46 15° 96° (E) 20:44:07 29.354 - 29.394 USB, Beacon 29.352 USB
UKube-1 26 Oct 20:50:46 20:52:57 14° 61° (ENE) 20:55:08 145.840 MHz, 145.915 MHz
STRAND 1 26 Oct 21:08:28 21:13:14 39° 292° (WNW) 21:17:58 ?
